[[{"header":{"parameterUnit":"m.s-1","parameterCategory":2,"la1":30.2991,"la2":30.254,"lo1":-89.0895,"lo2":-89.0444,"dy":0.0017,"dx":0.0017,"nx":28,"ny":28,"refTime":"2023-04-17T15:00:00:Z","depth":"0","parameterNumber":2,"parameterNumberName":"U-component_of_CURRENTS"},"data":[0,0,0,0,0,0,0,0,0,0,0,0,0,0,0,0,0,0,0,0,0,0,0,0,0,0,0,0,0,0,0,0,0,0,0,0,0,0,0,0,0,0,0,0,0,0,0,0,0,0,0,0,0,0,0,0,0,0,0.2465,0.2465,0,0.2491,0.2491,0.2491,0.252,0.252,0.2521,0.2522,0.2528,0.2528,0.2527,0,0,0,0,0,0,0,0,0,0,0,0,0,0.2408,0.2409,0.2464,0.2465,0.2466,0.2491,0.2491,0.2491,0.252,0.252,0.2521,0.2522,0.2528,0.2528,0.2527,0,0,0,0,0,0,0,0,0,0,0,0,0,0.2431,0.2409,0.2464,0.2485,0.2487,0.2491,0.2491,0.2491,0.2519,0.252,0.2521,0.2522,0.2528,0.2528,0.2527,0.2503,0,0,0.2525,0.2525,0,0,0,0,0,0,0,0,0.243,0.2433,0.2481,0.2483,0.2486,0.2506,0.2474,0.2495,0.2519,0.2504,0.2522,0.2523,0.252,0.252,0.2519,0.2504,0.2504,0.2525,0.2525,0.2524,0.2524,0,0,0,0,0,0,0,0.2428,0.2431,0.2472,0.2482,0.2485,0.2483,0.2487,0.2478,0.2504,0.2506,0.2508,0.2515,0.2521,0.252,0.2519,0.2504,0.2525,0.2524,0.2524,0.2524,0.247,0.2469,0,0,0,0,0,0,0.2431,0.243,0.2471,0.2473,0.2463,0.2483,0.2488,0.2496,0.2504,0.2507,0.2515,0.2517,0.252,0.252,0.252,0.2513,0.2524,0.2524,0.2523,0.2471,0.2469,0.2468,0,0,0,0,0,0,0.243,0.2434,0.247,0.2454,0.2459,0.2484,0.2492,0.2496,0.2499,0.2512,0.2514,0.2515,0.2521,0.2521,0.2513,0.2513,0.2523,0.2523,0.2472,0.247,0.2469,0.2486,0,0,0,0,0,0,0.2428,0.2434,0.243,0.2455,0.246,0.2468,0.2492,0.2496,0.2503,0.2506,0.2512,0.2514,0.2522,0.2514,0.2512,0.2512,0.2522,0.2473,0.2471,0.2469,0.2487,0.2485,0.2484,0,0,0,0,0,0.2426,0.2414,0.243,0.2434,0.2458,0.2468,0.247,0.2488,0.2502,0.2496,0.2505,0.2514,0.25,0.2513,0.2511,0.2511,0.2474,0.2472,0.2469,0.2487,0.2485,0.2484,0,0,0,0,0,0,0.2369,0.2417,0.2435,0.2433,0.245,0.2474,0.2466,0.2485,0.2486,0.2488,0.2503,0.2505,0.2497,0.2492,0.2505,0.2485,0.2487,0.2484,0.2501,0.2499,0.2498,0.2489,0.2522,0,0,0,0,0,0.236,0.2375,0.2411,0.2406,0.2416,0.2441,0.2445,0.2462,0.2473,0.2475,0.2484,0.2484,0.2483,0.2483,0.2476,0.2465,0.2451,0.246,0.2458,0.2457,0.2446,0.2431,0.2428,0.2461,0.2461,0.2461,0,0,0.2333,0.2364,0.2368,0.2397,0.2411,0.2419,0.2445,0.2449,0.2458,0.2473,0.2475,0.2479,0.2477,0.2471,0.2466,0.247,0.2438,0.2454,0.2454,0.2443,0.2428,0.2425,0.2423,0.2459,0.2459,0.2459,0,0,0.2293,0.2318,0.232,0.2339,0.2369,0.239,0.2393,0.2419,0.2432,0.2435,0.245,0.2453,0.2448,0.2455,0.2456,0.2436,0.243,0.243,0.2421,0.2407,0.2405,0.2402,0.2378,0.2374,0.2431,0.2431,0.2431,0,0.2253,0.2275,0.2315,0.2325,0.234,0.2379,0.238,0.2395,0.2415,0.2423,0.2434,0.2434,0.2441,0.2439,0.2438,0.2436,0.2418,0.2436,0.2407,0.2405,0.2402,0.2378,0.2373,0.2432,0.2432,0.2432,0.2432,0,0.2221,0.2242,0.224,0.228,0.2297,0.23,0.2341,0.2353,0.2378,0.2397,0.24,0.241,0.2413,0.2417,0.2426,0.241,0.2401,0.241,0.2419,0.24,0.2375,0.237,0.2433,0.2432,0.2432,0.2432,0,0,0.212,0.2204,0.2201,0.2229,0.2279,0.2288,0.2308,0.2335,0.2349,0.2364,0.2373,0.2381,0.2392,0.2391,0.2403,0.2394,0.2372,0.2393,0.2392,0.238,0.2327,0.2401,0.2402,0.2379,0.2378,0.2377,0.2317,0,0.2079,0.2104,0.2157,0.2174,0.2193,0.225,0.2268,0.2299,0.2329,0.2345,0.2361,0.2367,0.2382,0.2387,0.2381,0.2378,0.2357,0.2387,0.2335,0.2333,0.2412,0.2398,0.2432,0.2388,0.2311,0.231,0.2309,0,0.2031,0.206,0.2077,0.2156,0.2166,0.2179,0.2227,0.2251,0.2289,0.2312,0.2325,0.2342,0.234,0.2352,0.2328,0.2345,0.2328,0.232,0.2318,0.2376,0.2397,0.2392,0.238,0.2254,0.2301,0.2301,0.2302,0,0.1961,0.201,0.203,0.2049,0.2128,0.2142,0.2178,0.2228,0.2252,0.2284,0.2298,0.2306,0.2309,0.2292,0.2301,0.2304,0.2268,0.2274,0.2313,0.2318,0.233,0.2338,0.2201,0.2232,0.2232,0.2233,0.2233,0,0.1915,0.1922,0.1996,0.2008,0.2024,0.2091,0.2113,0.2159,0.2203,0.2223,0.2269,0.228,0.2293,0.2291,0.2283,0.2295,0.2255,0.2304,0.231,0.2337,0.2346,0.2226,0.2099,0.223,0.2231,0.2231,0.2232,0,0.184,0.189,0.192,0.1988,0.2003,0.2012,0.208,0.2093,0.2149,0.2175,0.2182,0.2242,0.2268,0.2284,0.2267,0.2283,0.2202,0.2284,0.2319,0.2332,0.2282,0.2156,0.1929,0.1899,0.2315,0.2316,0.2318,0,0.1816,0.1824,0.1893,0.1899,0.1926,0.1951,0.197,0.205,0.2073,0.2153,0.2156,0.2206,0.2242,0.2275,0.2333,0.2347,0.2213,0.2373,0.2399,0.2278,0.2139,0.1998,0.1979,0.2403,0.2405,0.2406,0.2407,0,0.1768,0.1792,0.1815,0.1827,0.1846,0.1867,0.1905,0.1925,0.2016,0.2048,0.2099,0.2133,0.2241,0.2299,0.237,0.2403,0.2251,0.2409,0.226,0.2176,0.2028,0.2007,0.2427,0.2421,0.242,0.2419,0.2418,0.2417,0.1733,0.1727,0.1758,0.1751,0.1761,0.177,0.179,0.1842,0.1883,0.1948,0.2012,0.2074,0.2214,0.2353,0.2389,0.2451,0.2314,0.2387,0.2234,0.2097,0.2086,0.2548,0.2578,0.2578,0.2577,0.2577,0.2577,0,0.17,0.1685,0.1678,0.1686,0.1659,0.1693,0.173,0.1753,0.1794,0.187,0.1919,0.2042,0.2142,0.2279,0.2373,0.2262,0.222,0.2152,0.1927,0.1919,0.2325,0.2355,0.2367,0.2367,0.2367,0.2367,0.2368,0.2368,0.1688,0.1659,0.1638,0.1579,0.1572,0.1556,0.1573,0.1624,0.1681,0.174,0.1806,0.1859,0.1944,0.1944,0.1948,0.1962,0.1717,0.1635,0.1529,0.1776,0.1785,0.1794,0.1797,0.1691,0.169,0.1197,0.1192,0.1188]},{"header":{"parameterUnit":"m.s-1","parameterCategory":2,"la1":30.2991,"la2":30.254,"lo1":-89.0895,"lo2":-89.0444,"dy":0.0017,"dx":0.0017,"nx":28,"ny":28,"refTime":"2023-04-17T15:00:00:Z","depth":"0","parameterNumber":3,"parameterNumberName":"V-component_of_CURRENTS"},"data":[0,0,0,0,0,0,0,0,0,0,0,0,0,0,0,0,0,0,0,0,0,0,0,0,0,0,0,0,0,0,0,0,0,0,0,0,0,0,0,0,0,0,0,0,0,0,0,0,0,0,0,0,0,0,0,0,0,0,-0.0657,-0.0658,0,-0.0771,-0.0772,-0.0773,-0.0803,-0.0802,-0.0801,-0.0801,-0.0929,-0.0933,-0.0937,0,0,0,0,0,0,0,0,0,0,0,0,0,-0.0479,-0.0482,-0.0657,-0.0658,-0.0659,-0.077,-0.0772,-0.0774,-0.0803,-0.0802,-0.0801,-0.08,-0.0928,-0.0933,-0.0937,0,0,0,0,0,0,0,0,0,0,0,0,0,-0.0571,-0.0483,-0.0656,-0.0687,-0.0691,-0.077,-0.0772,-0.0774,-0.0803,-0.0802,-0.0801,-0.08,-0.0926,-0.0932,-0.0938,-0.0999,0,0,-0.0957,-0.096,0,0,0,0,0,0,0,0,-0.0566,-0.0578,-0.0681,-0.0685,-0.0689,-0.0771,-0.0757,-0.085,-0.0803,-0.0761,-0.0801,-0.0799,-0.0878,-0.0888,-0.0913,-0.1005,-0.101,-0.0958,-0.0961,-0.0964,-0.0966,0,0,0,0,0,0,0,-0.056,-0.0573,-0.0702,-0.0683,-0.0688,-0.07,-0.0712,-0.0774,-0.0825,-0.0765,-0.0767,-0.0779,-0.088,-0.0906,-0.0916,-0.1012,-0.0957,-0.0963,-0.0967,-0.0969,-0.1181,-0.1183,0,0,0,0,0,0,-0.0546,-0.0568,-0.0699,-0.0706,-0.0623,-0.0704,-0.0717,-0.0746,-0.0824,-0.0835,-0.078,-0.078,-0.0896,-0.0909,-0.092,-0.1024,-0.0964,-0.097,-0.0973,-0.118,-0.1182,-0.1184,0,0,0,0,0,0,-0.0542,-0.0557,-0.0694,-0.0637,-0.0655,-0.0708,-0.0741,-0.0749,-0.0777,-0.0836,-0.0846,-0.0799,-0.0896,-0.0912,-0.0987,-0.1028,-0.0972,-0.0978,-0.1177,-0.118,-0.1183,-0.1215,0,0,0,0,0,0,-0.0537,-0.0555,-0.0573,-0.0637,-0.0658,-0.0748,-0.0742,-0.0752,-0.0786,-0.0788,-0.0856,-0.0866,-0.0896,-0.0977,-0.0993,-0.1036,-0.0983,-0.1175,-0.1179,-0.1182,-0.1211,-0.1218,-0.1224,0,0,0,0,0,-0.053,-0.0566,-0.0574,-0.059,-0.0682,-0.0749,-0.0762,-0.0794,-0.0788,-0.0813,-0.0857,-0.0864,-0.1011,-0.0984,-0.1002,-0.1047,-0.1173,-0.1178,-0.1182,-0.1208,-0.1217,-0.1224,0,0,0,0,0,0,-0.0507,-0.0574,-0.0584,-0.0641,-0.0689,-0.0753,-0.0782,-0.0798,-0.0854,-0.0852,-0.0896,-0.0912,-0.0985,-0.1017,-0.0986,-0.1119,-0.1092,-0.11,-0.1106,-0.1114,-0.1121,-0.1082,-0.0988,0,0,0,0,0,-0.0508,-0.0549,-0.061,-0.0655,-0.0679,-0.0728,-0.0758,-0.078,-0.0834,-0.0856,-0.0905,-0.096,-0.102,-0.1064,-0.1113,-0.12,-0.1195,-0.1239,-0.1245,-0.1251,-0.1232,-0.1273,-0.1281,-0.1198,-0.1198,-0.1198,0,0,-0.051,-0.0553,-0.0576,-0.0651,-0.0691,-0.0742,-0.0744,-0.0795,-0.0839,-0.0864,-0.0941,-0.098,-0.1044,-0.1129,-0.1166,-0.1162,-0.1273,-0.1256,-0.126,-0.1238,-0.1278,-0.1286,-0.1293,-0.1201,-0.1201,-0.12,0,0,-0.0541,-0.0575,-0.0618,-0.0657,-0.0717,-0.0753,-0.0766,-0.0834,-0.0864,-0.094,-0.0966,-0.1024,-0.1128,-0.1179,-0.1218,-0.1295,-0.1294,-0.1321,-0.1344,-0.1385,-0.1391,-0.1397,-0.1397,-0.1402,-0.134,-0.134,-0.134,0,-0.0539,-0.0604,-0.064,-0.069,-0.0724,-0.0758,-0.0807,-0.0854,-0.0936,-0.0967,-0.0965,-0.1099,-0.1148,-0.125,-0.1274,-0.1308,-0.1315,-0.1308,-0.1391,-0.1396,-0.1401,-0.14,-0.1405,-0.1342,-0.1342,-0.1342,-0.1342,0,-0.0605,-0.0648,-0.0678,-0.0749,-0.0791,-0.0839,-0.0897,-0.0943,-0.0974,-0.1015,-0.1101,-0.1164,-0.1239,-0.1277,-0.1302,-0.1379,-0.1366,-0.138,-0.1363,-0.1411,-0.1407,-0.1412,-0.1345,-0.1345,-0.1344,-0.1344,0,0,-0.0638,-0.0707,-0.0719,-0.0743,-0.0821,-0.0863,-0.0934,-0.1011,-0.1047,-0.1117,-0.1172,-0.1275,-0.1284,-0.1327,-0.1372,-0.1412,-0.1456,-0.1414,-0.1415,-0.1398,-0.152,-0.1432,-0.1428,-0.1491,-0.1493,-0.1494,-0.1501,0,-0.0681,-0.0754,-0.0789,-0.0859,-0.0901,-0.0941,-0.1001,-0.1065,-0.1116,-0.1175,-0.1235,-0.1296,-0.1317,-0.1347,-0.1397,-0.1434,-0.1471,-0.145,-0.1488,-0.1488,-0.1392,-0.1432,-0.1262,-0.1248,-0.1505,-0.1506,-0.1507,0,-0.0757,-0.0784,-0.085,-0.0898,-0.092,-0.0963,-0.1042,-0.1096,-0.1178,-0.1212,-0.1276,-0.1311,-0.1385,-0.1384,-0.147,-0.1457,-0.1485,-0.1507,-0.1509,-0.1411,-0.1409,-0.1245,-0.1246,-0.1132,-0.1514,-0.1513,-0.1513,0,-0.0779,-0.0839,-0.0881,-0.0902,-0.0963,-0.0994,-0.1028,-0.1106,-0.1136,-0.1221,-0.1236,-0.1336,-0.1359,-0.1427,-0.1461,-0.1478,-0.1521,-0.1558,-0.1503,-0.1496,-0.1346,-0.1324,-0.1222,-0.161,-0.161,-0.161,-0.161,0,-0.0833,-0.0865,-0.0882,-0.091,-0.0943,-0.0985,-0.103,-0.1083,-0.1129,-0.114,-0.1239,-0.1247,-0.1367,-0.1405,-0.1459,-0.147,-0.1525,-0.1491,-0.1496,-0.1352,-0.1331,-0.122,-0.1236,-0.161,-0.161,-0.161,-0.161,0,-0.086,-0.0883,-0.0925,-0.0958,-0.0962,-0.0984,-0.1001,-0.1019,-0.107,-0.1082,-0.1098,-0.1179,-0.121,-0.1305,-0.1391,-0.1435,-0.1411,-0.1469,-0.1265,-0.1245,-0.1094,-0.1119,-0.1112,-0.1087,-0.1422,-0.142,-0.1418,0,-0.0875,-0.0901,-0.0937,-0.0941,-0.095,-0.0962,-0.0962,-0.0997,-0.099,-0.1013,-0.1001,-0.1043,-0.1029,-0.1119,-0.1196,-0.1265,-0.1286,-0.1181,-0.1189,-0.1041,-0.1076,-0.1135,-0.112,-0.1006,-0.1001,-0.0997,-0.0994,0,-0.0886,-0.0909,-0.0929,-0.0928,-0.0928,-0.0911,-0.0896,-0.0878,-0.0887,-0.0874,-0.0828,-0.081,-0.0856,-0.0813,-0.0911,-0.0979,-0.1072,-0.1099,-0.1009,-0.0782,-0.0779,-0.0769,-0.1028,-0.0957,-0.0961,-0.0964,-0.0966,-0.0967,-0.0878,-0.089,-0.0911,-0.0897,-0.0889,-0.0838,-0.0801,-0.0761,-0.0711,-0.0632,-0.0641,-0.0513,-0.044,-0.0529,-0.0649,-0.0638,-0.0809,-0.0605,-0.0661,-0.0743,-0.0674,-0.0828,-0.073,-0.0732,-0.0734,-0.0736,-0.0738,0,-0.0845,-0.0858,-0.086,-0.0842,-0.0792,-0.0799,-0.0733,-0.0661,-0.0559,-0.0436,-0.0355,-0.0058,0.0004,-0.0038,-0.0049,-0.0127,-0.0263,-0.0175,-0.019,-0.0213,-0.0359,-0.0285,-0.0007,-0.0007,-0.0008,-0.0008,-0.0008,-0.0008,-0.0829,-0.0826,-0.0819,-0.0731,-0.0704,-0.0606,-0.055,-0.0454,-0.0336,-0.0053,0.0191,0.0332,0.0588,0.0445,0.0397,0.0284,0.0195,0.0154,0.0036,0.0012,-0.0031,-0.0072,0.0,0.0333,0.0334,0.0272,0.0272,0.0272]}],[{"header":{"parameterUnit":"m.s-1","parameterCategory":2,"la1":30.2991,"la2":30.254,"lo1":-89.0895,"lo2":-89.0444,"dy":0.0017,"dx":0.0017,"nx":28,"ny":28,"refTime":"2023-04-17T15:00:00:Z","depth":"2","parameterNumber":2,"parameterNumberName":"U-component_of_CURRENTS"},"data":[0,0,0,0,0,0,0,0,0,0,0,0,0,0,0,0,0,0,0,0,0,0,0,0,0,0,0,0,0,0,0,0,0,0,0,0,0,0,0,0,0,0,0,0,0,0,0,0,0,0,0,0,0,0,0,0,0,0,0.1692,0.1693,0,0.1774,0.1775,0.1776,0.185,0.185,0.1851,0.1852,0.1976,0.1978,0.1981,0,0,0,0,0,0,0,0,0,0,0,0,0,0.1682,0.1681,0.1692,0.1693,0.1694,0.1774,0.1775,0.1776,0.185,0.1851,0.1852,0.1853,0.1975,0.1978,0.1981,0,0,0,0,0,0,0,0,0,0,0,0,0,0.1717,0.1681,0.1692,0.174,0.1745,0.1773,0.1775,0.1776,0.1849,0.1851,0.1852,0.1853,0.1974,0.1977,0.1981,0.1979,0,0,0.1993,0.1994,0,0,0,0,0,0,0,0,0.1715,0.1718,0.1732,0.1736,0.1742,0.1802,0.1817,0.1846,0.1849,0.181,0.1852,0.1854,0.192,0.1928,0.1941,0.1985,0.199,0.1993,0.1995,0.1997,0.1998,0,0,0,0,0,0,0,0.1713,0.1715,0.1725,0.1733,0.1739,0.1786,0.1791,0.1823,0.1858,0.1814,0.1819,0.1827,0.1924,0.1937,0.1945,0.1992,0.1993,0.1996,0.1999,0.2,0.2099,0.2099,0,0,0,0,0,0,0.1695,0.1712,0.1722,0.1727,0.1731,0.1784,0.1791,0.1782,0.1857,0.1869,0.1826,0.183,0.193,0.194,0.1949,0.1983,0.1997,0.2,0.2003,0.2099,0.2099,0.2099,0,0,0,0,0,0,0.1695,0.1695,0.1719,0.1723,0.1729,0.1783,0.1773,0.1783,0.1807,0.1866,0.1879,0.184,0.1932,0.1944,0.1992,0.1988,0.2002,0.2005,0.2098,0.2099,0.2099,0.2031,0,0,0,0,0,0,0.1694,0.1694,0.1682,0.172,0.1728,0.1725,0.1772,0.1784,0.1809,0.1816,0.1882,0.1894,0.1934,0.1986,0.1995,0.1993,0.2008,0.2098,0.2098,0.2099,0.2033,0.2029,0.2026,0,0,0,0,0,0.1693,0.1659,0.1681,0.1683,0.1709,0.1724,0.1732,0.1776,0.1808,0.1805,0.1867,0.1893,0.1997,0.1989,0.2,0.1999,0.2097,0.2098,0.2099,0.2034,0.203,0.2026,0,0,0,0,0,0,0.1645,0.1664,0.1689,0.1663,0.1692,0.1736,0.1736,0.1773,0.1818,0.1832,0.1896,0.1912,0.1955,0.1987,0.1976,0.2032,0.2052,0.2055,0.1999,0.1995,0.1992,0.1983,0.2012,0,0,0,0,0,0.1629,0.161,0.1648,0.1627,0.1639,0.1692,0.1706,0.1737,0.1782,0.1803,0.1854,0.1912,0.1964,0.1987,0.2032,0.2056,0.2072,0.2065,0.2061,0.2058,0.206,0.2083,0.2081,0.2102,0.2102,0.2102,0,0,0.1605,0.1614,0.1603,0.1617,0.1645,0.1654,0.1703,0.1716,0.1736,0.1809,0.1848,0.1902,0.197,0.2005,0.2025,0.2031,0.2056,0.2059,0.2056,0.206,0.2084,0.2081,0.2079,0.2103,0.2103,0.2102,0,0,0.1547,0.1556,0.1529,0.155,0.1584,0.1618,0.1622,0.1671,0.1705,0.1747,0.1813,0.1866,0.1931,0.1982,0.2017,0.2022,0.2041,0.2033,0.2004,0.2025,0.2023,0.2022,0.2011,0.2009,0.2027,0.2027,0.2026,0,0.1523,0.1497,0.1525,0.1518,0.1534,0.1601,0.1596,0.1635,0.1697,0.1729,0.1751,0.1871,0.1923,0.1983,0.199,0.2013,0.2016,0.2009,0.2018,0.2017,0.2017,0.2007,0.2006,0.2023,0.2024,0.2024,0.2024,0,0.1459,0.1448,0.1434,0.1451,0.1471,0.1471,0.1535,0.1567,0.1621,0.1671,0.1741,0.1816,0.189,0.1911,0.1955,0.1984,0.1982,0.2011,0.202,0.201,0.2001,0.2,0.2019,0.202,0.2021,0.2022,0,0,0.1381,0.1387,0.1385,0.1391,0.1439,0.1448,0.1485,0.154,0.1573,0.164,0.1681,0.1777,0.1825,0.187,0.1927,0.1948,0.1943,0.1971,0.1974,0.1946,0.196,0.1937,0.1935,0.1966,0.1967,0.1967,0.1943,0,0.1331,0.1292,0.1321,0.1312,0.1306,0.1382,0.1414,0.1477,0.1542,0.1595,0.1687,0.1749,0.1808,0.1842,0.1874,0.1941,0.1944,0.1945,0.1988,0.1989,0.1959,0.1936,0.1664,0.1619,0.1943,0.1943,0.1943,0,0.1265,0.1251,0.122,0.1252,0.126,0.1276,0.1347,0.1383,0.1482,0.1533,0.1611,0.1687,0.176,0.1797,0.1883,0.1878,0.191,0.1945,0.1945,0.1952,0.1968,0.1691,0.1608,0.1944,0.1943,0.1943,0.1943,0,0.1191,0.1187,0.1159,0.1167,0.1211,0.1232,0.1273,0.1364,0.14,0.1493,0.1524,0.163,0.1681,0.1747,0.185,0.1858,0.1919,0.1941,0.1941,0.1938,0.1732,0.1712,0.1971,0.1971,0.1971,0.1971,0.1972,0,0.1123,0.1106,0.1124,0.111,0.1107,0.1169,0.1194,0.1254,0.1331,0.1365,0.1484,0.1527,0.1671,0.1741,0.1816,0.188,0.1895,0.1926,0.1934,0.17,0.1678,0.1993,0.1996,0.1971,0.1971,0.1971,0.1971,0,0.1053,0.1052,0.1026,0.1055,0.1067,0.1069,0.1134,0.1149,0.1237,0.1279,0.1304,0.1444,0.1544,0.167,0.178,0.183,0.1898,0.191,0.1617,0.1592,0.19,0.19,0.1889,0.1889,0.1888,0.1887,0.1887,0,0.1014,0.0987,0.0979,0.0958,0.0972,0.099,0.0999,0.1088,0.111,0.1229,0.1234,0.1356,0.1433,0.1585,0.1649,0.1734,0.1867,0.1581,0.1567,0.1885,0.1894,0.1895,0.1896,0.1243,0.1237,0.1232,0.1228,0,0.0951,0.0943,0.0919,0.0874,0.0863,0.0865,0.0894,0.0907,0.101,0.1053,0.1137,0.1206,0.1313,0.13,0.142,0.1454,0.1551,0.1492,0.1872,0.1336,0.1282,0.129,0.1309,0.1186,0.119,0.1194,0.1196,0.1198,0.0909,0.0878,0.0834,0.0814,0.0783,0.0774,0.0794,0.0822,0.0862,0.0956,0.1005,0.1016,0.098,0.1028,0.1096,0.119,0.1313,0.1275,0.1286,0.1302,0.1263,0.1213,0.1094,0.1098,0.1101,0.1104,0.1106,0,0.084,0.0834,0.0786,0.0765,0.0732,0.0741,0.0749,0.0766,0.0821,0.0811,0.0873,0.0611,0.0607,0.0684,0.0717,0.0808,0.078,0.0841,0.0738,0.0775,0.0809,0.0744,0.0438,0.0438,0.0438,0.0438,0,0,0.0798,0.0742,0.0741,0.0731,0.0735,0.0699,0.0716,0.0719,0.0684,0.06,0.0512,0.0512,0.0483,0.0344,0.0395,0.0444,0.062,0.0436,0.0934,0.0834,0.0869,0.0988,0.0922,0,0,0,0,0]},{"header":{"parameterUnit":"m.s-1","parameterCategory":2,"la1":30.2991,"la2":30.254,"lo1":-89.0895,"lo2":-89.0444,"dy":0.0017,"dx":0.0017,"nx":28,"ny":28,"refTime":"2023-04-17T15:00:00:Z","depth":"2","parameterNumber":3,"parameterNumberName":"V-component_of_CURRENTS"},"data":[0,0,0,0,0,0,0,0,0,0,0,0,0,0,0,0,0,0,0,0,0,0,0,0,0,0,0,0,0,0,0,0,0,0,0,0,0,0,0,0,0,0,0,0,0,0,0,0,0,0,0,0,0,0,0,0,0,0,0.0922,0.0922,0,0.0905,0.0905,0.0905,0.0853,0.0851,0.085,0.0849,0.0758,0.0757,0.0755,0,0,0,0,0,0,0,0,0,0,0,0,0,0.0904,0.0905,0.0922,0.0922,0.0922,0.0905,0.0905,0.0905,0.0853,0.0851,0.085,0.0849,0.0758,0.0757,0.0755,0,0,0,0,0,0,0,0,0,0,0,0,0,0.0903,0.0905,0.0922,0.0893,0.0891,0.0906,0.0905,0.0905,0.0853,0.0851,0.085,0.0848,0.0759,0.0757,0.0755,0.0778,0,0,0.0749,0.0748,0,0,0,0,0,0,0,0,0.0903,0.0903,0.0898,0.0895,0.0892,0.0879,0.0866,0.0859,0.0854,0.0868,0.0849,0.0847,0.0793,0.0788,0.079,0.0773,0.0769,0.0749,0.0747,0.0746,0.0746,0,0,0,0,0,0,0,0.0903,0.0904,0.0915,0.0898,0.0895,0.088,0.0878,0.0864,0.0839,0.0866,0.0862,0.0861,0.079,0.0792,0.0787,0.0768,0.0749,0.0747,0.0746,0.0745,0.0722,0.0722,0,0,0,0,0,0,0.0907,0.0904,0.0916,0.0915,0.0893,0.0882,0.088,0.0885,0.084,0.0833,0.0862,0.0859,0.0796,0.079,0.0784,0.0765,0.0746,0.0745,0.0743,0.0721,0.0722,0.0723,0,0,0,0,0,0,0.0907,0.0909,0.0917,0.0908,0.0908,0.0884,0.0891,0.0886,0.0867,0.0839,0.0829,0.0846,0.0795,0.0786,0.077,0.0763,0.0744,0.0742,0.0721,0.0722,0.0722,0.0756,0,0,0,0,0,0,0.0907,0.0909,0.0911,0.0909,0.0909,0.0921,0.0893,0.0887,0.087,0.0864,0.0822,0.0813,0.0793,0.0774,0.0768,0.076,0.074,0.072,0.0721,0.0722,0.0754,0.0758,0.0761,0,0,0,0,0,0.0906,0.0917,0.0912,0.0913,0.0914,0.0921,0.092,0.0897,0.087,0.0871,0.0846,0.0813,0.0776,0.0773,0.0767,0.0757,0.0719,0.0721,0.0722,0.0752,0.0757,0.0761,0,0,0,0,0,0,0.0905,0.0913,0.0907,0.0918,0.0917,0.0912,0.0906,0.0892,0.0874,0.0858,0.0827,0.0817,0.0802,0.0781,0.0778,0.0755,0.074,0.074,0.0765,0.0769,0.0773,0.0784,0.0739,0,0,0,0,0,0.091,0.0923,0.0923,0.0932,0.0928,0.0915,0.0911,0.0898,0.0884,0.0873,0.0844,0.0817,0.0809,0.0789,0.0778,0.0765,0.074,0.0754,0.0758,0.0761,0.0767,0.0741,0.0742,0.0727,0.0727,0.0727,0,0,0.0914,0.0918,0.0925,0.0933,0.0925,0.0932,0.0907,0.09,0.0905,0.0867,0.0851,0.0831,0.0812,0.0803,0.0792,0.0777,0.0748,0.0762,0.0765,0.077,0.0742,0.0744,0.0745,0.0728,0.0728,0.0728,0,0,0.0925,0.0927,0.0937,0.094,0.0933,0.0933,0.0929,0.0916,0.0904,0.0899,0.0875,0.086,0.0828,0.0823,0.0815,0.0834,0.0776,0.0812,0.0827,0.0801,0.0802,0.0803,0.0756,0.0752,0.0804,0.0804,0.0804,0,0.0916,0.094,0.094,0.0946,0.0951,0.0933,0.0943,0.0941,0.0924,0.0924,0.0893,0.0871,0.0846,0.0854,0.0852,0.0841,0.0803,0.0811,0.0805,0.0805,0.0805,0.0757,0.0753,0.0805,0.0805,0.0805,0.0805,0,0.094,0.0952,0.0955,0.0965,0.0973,0.0977,0.0979,0.0977,0.0955,0.0952,0.0944,0.0919,0.09,0.0889,0.087,0.086,0.0824,0.0819,0.0793,0.0809,0.0757,0.0751,0.0808,0.0807,0.0807,0.0806,0,0,0.0912,0.0963,0.0957,0.0976,0.0983,0.0995,0.1008,0.1023,0.1032,0.1004,0.1011,0.099,0.0958,0.0948,0.0919,0.0893,0.085,0.0844,0.0842,0.0795,0.0763,0.0805,0.0802,0.083,0.0829,0.0829,0.072,0,0.0915,0.0952,0.0975,0.1006,0.1022,0.1031,0.1053,0.1064,0.1059,0.1061,0.1038,0.1022,0.0986,0.0958,0.0933,0.088,0.0838,0.0878,0.0757,0.0754,0.0788,0.0799,0.0773,0.0681,0.0715,0.0714,0.0713,0,0.0906,0.0942,0.0972,0.104,0.1046,0.1059,0.1092,0.1107,0.1118,0.1107,0.109,0.1066,0.1031,0.099,0.0901,0.0918,0.0837,0.0791,0.0786,0.0814,0.0787,0.0674,0.0669,0.0703,0.0704,0.0705,0.0705,0,0.0871,0.0934,0.0965,0.0981,0.1045,0.1058,0.1083,0.1105,0.1122,0.1113,0.1113,0.1082,0.104,0.0967,0.0868,0.0865,0.0766,0.0754,0.0716,0.0716,0.0669,0.0668,0.0681,0.0681,0.0681,0.0681,0.0682,0,0.0855,0.0873,0.0951,0.0959,0.1001,0.1042,0.1068,0.1088,0.1114,0.1136,0.1112,0.1131,0.1025,0.0967,0.0878,0.0787,0.0765,0.0725,0.0702,0.068,0.0681,0.0687,0.0689,0.0677,0.0678,0.0679,0.068,0,0.0781,0.0836,0.0865,0.0943,0.0973,0.098,0.1053,0.1076,0.1097,0.1122,0.1111,0.1129,0.1066,0.0968,0.0845,0.0794,0.0708,0.067,0.0648,0.0628,0.0665,0.067,0.0626,0.0627,0.0628,0.0628,0.0629,0,0.0746,0.0753,0.0826,0.0839,0.0862,0.0906,0.0944,0.1026,0.1068,0.1142,0.1163,0.1128,0.1145,0.1008,0.0892,0.0749,0.0707,0.0624,0.0644,0.0683,0.0664,0.0668,0.0672,0.0564,0.0564,0.0564,0.0564,0,0.0662,0.0669,0.0695,0.0724,0.0762,0.0837,0.0911,0.098,0.1079,0.1122,0.1215,0.1246,0.117,0.1047,0.0864,0.0791,0.0659,0.0623,0.0646,0.0616,0.0625,0.0608,0.0613,0.0564,0.0564,0.0564,0.0564,0.0564,0.0569,0.056,0.0576,0.0586,0.0636,0.0732,0.0813,0.0938,0.1035,0.1167,0.126,0.1287,0.114,0.0932,0.079,0.0657,0.0712,0.0609,0.0608,0.0607,0.0654,0.0668,0.0619,0.0619,0.062,0.062,0.062,0,0.0453,0.0435,0.0446,0.0482,0.0518,0.0576,0.0753,0.0887,0.1018,0.1169,0.1281,0.1133,0.1015,0.0847,0.0658,0.0574,0.0561,0.0513,0.0469,0.0473,0.0476,0.0514,0.0442,0.0441,0.044,0.0439,0,0,0.0394,0.0341,0.0343,0.0331,0.0373,0.0486,0.06,0.0816,0.0986,0.1152,0.1166,0.1252,0.1036,0.08,0.066,0.0542,0.0547,0.0543,0.0706,0.068,0.0683,0.0561,0.0629,0,0,0,0,0]}],[{"header":{"parameterUnit":"m.s-1","parameterCategory":2,"la1":30.2991,"la2":30.254,"lo1":-89.0895,"lo2":-89.0444,"dy":0.0017,"dx":0.0017,"nx":28,"ny":28,"refTime":"2023-04-17T15:00:00:Z","depth":"4","parameterNumber":2,"parameterNumberName":"U-component_of_CURRENTS"},"data":[0,0,0,0,0,0,0,0,0,0,0,0,0,0,0,0,0,0,0,0,0,0,0,0,0,0,0,0,0,0,0,0,0,0,0,0,0,0,0,0,0,0,0,0,0,0,0,0,0,0,0,0,0,0,0,0,0,0,-0.0974,-0.0974,0,-0.0967,-0.0967,-0.0967,-0.1084,-0.1087,-0.109,-0.1093,-0.1263,-0.1264,-0.1266,0,0,0,0,0,0,0,0,0,0,0,0,0,-0.0852,-0.0856,-0.0974,-0.0974,-0.0973,-0.0967,-0.0967,-0.0967,-0.1083,-0.1087,-0.1091,-0.1094,-0.1262,-0.1264,-0.1266,0,0,0,0,0,0,0,0,0,0,0,0,0,-0.0884,-0.0857,-0.0974,-0.1029,-0.1033,-0.0967,-0.0967,-0.0967,-0.1083,-0.1087,-0.1091,-0.1096,-0.1261,-0.1264,-0.1267,-0.1196,0,0,-0.1275,-0.1276,0,0,0,0,0,0,0,0,-0.0883,-0.0889,-0.1021,-0.1025,-0.103,-0.1028,-0.0986,-0.1051,-0.1082,-0.1067,-0.1093,-0.1098,-0.1196,-0.1204,-0.1194,-0.1204,-0.1211,-0.1275,-0.1277,-0.1278,-0.1279,0,0,0,0,0,0,0,-0.0881,-0.0888,-0.0974,-0.102,-0.1025,-0.0972,-0.0984,-0.0997,-0.1112,-0.1068,-0.1076,-0.107,-0.1201,-0.1191,-0.12,-0.1213,-0.1275,-0.1277,-0.1279,-0.128,-0.1462,-0.1465,0,0,0,0,0,0,-0.0884,-0.0888,-0.0974,-0.0973,-0.0962,-0.0972,-0.0985,-0.1027,-0.1108,-0.1123,-0.1066,-0.1075,-0.1184,-0.1196,-0.1206,-0.1411,-0.1278,-0.128,-0.1282,-0.1459,-0.1463,-0.1466,0,0,0,0,0,0,-0.0882,-0.0894,-0.0974,-0.0925,-0.0931,-0.0971,-0.1015,-0.1024,-0.1139,-0.1104,-0.1124,-0.1186,-0.1188,-0.1203,-0.1328,-0.1409,-0.1282,-0.1284,-0.1455,-0.146,-0.1464,-0.164,0,0,0,0,0,0,-0.088,-0.0894,-0.0953,-0.0927,-0.0934,-0.1009,-0.1011,-0.1021,-0.1118,-0.1134,-0.121,-0.1223,-0.1193,-0.1324,-0.1331,-0.141,-0.1286,-0.1451,-0.1457,-0.1463,-0.163,-0.165,-0.1667,0,0,0,0,0,-0.0876,-0.095,-0.0957,-0.0968,-0.1008,-0.1011,-0.1012,-0.1051,-0.1122,-0.1175,-0.1247,-0.1227,-0.1366,-0.133,-0.1336,-0.1419,-0.1448,-0.1455,-0.1462,-0.1622,-0.1646,-0.1667,0,0,0,0,0,0,-0.0913,-0.0966,-0.0976,-0.106,-0.1062,-0.1032,-0.1084,-0.1121,-0.1215,-0.1274,-0.1274,-0.129,-0.1424,-0.1398,-0.1358,-0.1486,-0.1401,-0.141,-0.152,-0.1543,-0.1561,-0.1479,-0.1288,0,0,0,0,0,-0.0943,-0.1032,-0.1028,-0.1093,-0.1112,-0.1122,-0.1146,-0.118,-0.123,-0.1282,-0.1316,-0.1372,-0.1429,-0.148,-0.1499,-0.1578,-0.1501,-0.1632,-0.1651,-0.1667,-0.1604,-0.1586,-0.1596,-0.149,-0.149,-0.149,0,0,-0.0959,-0.1007,-0.1049,-0.1108,-0.1121,-0.1148,-0.1155,-0.123,-0.1266,-0.1282,-0.1388,-0.1447,-0.1468,-0.1554,-0.161,-0.1565,-0.1669,-0.1676,-0.169,-0.1616,-0.1594,-0.1604,-0.1612,-0.1495,-0.1494,-0.1493,0,0,-0.1006,-0.1096,-0.1169,-0.1195,-0.1247,-0.1243,-0.13,-0.1329,-0.1377,-0.1463,-0.1498,-0.1625,-0.1672,-0.1709,-0.1734,-0.1871,-0.1771,-0.1888,-0.1918,-0.1906,-0.1913,-0.1917,-0.1878,-0.1877,-0.1896,-0.1896,-0.1896,0,-0.1009,-0.1115,-0.1179,-0.1239,-0.1268,-0.131,-0.1361,-0.1386,-0.1453,-0.1498,-0.1529,-0.1684,-0.1735,-0.1852,-0.1882,-0.1916,-0.1851,-0.1842,-0.1927,-0.193,-0.1931,-0.1889,-0.1886,-0.1905,-0.1904,-0.1903,-0.1902,0,-0.1052,-0.1178,-0.1226,-0.132,-0.1364,-0.1424,-0.1451,-0.1514,-0.1591,-0.1615,-0.1768,-0.1836,-0.1905,-0.1981,-0.1963,-0.2031,-0.1964,-0.1958,-0.1863,-0.1952,-0.1903,-0.1897,-0.1919,-0.1915,-0.1913,-0.191,0,0,-0.0972,-0.1204,-0.1233,-0.1322,-0.1427,-0.1464,-0.1536,-0.1597,-0.1683,-0.1761,-0.1856,-0.1985,-0.2021,-0.2044,-0.209,-0.2095,-0.2101,-0.2008,-0.2003,-0.1953,-0.2019,-0.1795,-0.1766,-0.2089,-0.2088,-0.2087,-0.1994,0,-0.0979,-0.1094,-0.124,-0.1389,-0.1444,-0.155,-0.161,-0.1691,-0.1767,-0.1855,-0.1956,-0.204,-0.2043,-0.2095,-0.2112,-0.2095,-0.2081,-0.2121,-0.1947,-0.194,-0.1719,-0.175,-0.2084,-0.1989,-0.1987,-0.1986,-0.1985,0,-0.0988,-0.106,-0.1176,-0.1437,-0.1482,-0.1581,-0.1719,-0.1779,-0.1892,-0.1949,-0.2045,-0.2083,-0.2125,-0.2108,-0.2082,-0.2088,-0.2023,-0.2015,-0.2012,-0.1706,-0.1701,-0.187,-0.1973,-0.1974,-0.1974,-0.1975,-0.1976,0,-0.0857,-0.1083,-0.1178,-0.124,-0.1463,-0.1574,-0.1677,-0.1808,-0.1863,-0.1959,-0.1994,-0.2089,-0.2077,-0.2052,-0.1951,-0.2003,-0.1875,-0.1972,-0.1724,-0.171,-0.1863,-0.1858,-0.1908,-0.1908,-0.1908,-0.1909,-0.1909,0,-0.082,-0.0943,-0.1139,-0.1195,-0.1317,-0.1511,-0.1666,-0.1756,-0.1893,-0.1878,-0.2001,-0.1942,-0.2032,-0.1958,-0.1927,-0.1737,-0.1835,-0.1677,-0.1652,-0.1949,-0.1954,-0.1861,-0.1856,-0.1905,-0.1906,-0.1907,-0.1907,0,-0.0734,-0.0852,-0.1007,-0.1227,-0.1281,-0.1367,-0.1604,-0.1649,-0.1799,-0.1763,-0.1746,-0.1799,-0.1646,-0.1713,-0.1646,-0.1635,-0.1543,-0.1442,-0.1692,-0.1691,-0.1422,-0.1429,-0.1238,-0.1229,-0.1221,-0.1215,-0.1209,0,-0.0711,-0.0757,-0.0966,-0.0995,-0.1126,-0.1258,-0.128,-0.1506,-0.1499,-0.1564,-0.1455,-0.1405,-0.1369,-0.1179,-0.1248,-0.1222,-0.1206,-0.1208,-0.1382,-0.1348,-0.1345,-0.1364,-0.1381,-0.1197,-0.1195,-0.1193,-0.1191,0,-0.0642,-0.0742,-0.0823,-0.0851,-0.0914,-0.0981,-0.1041,-0.1056,-0.1171,-0.1274,-0.1121,-0.1107,-0.0951,-0.0966,-0.0925,-0.0906,-0.127,-0.113,-0.1151,-0.1315,-0.1297,-0.1306,-0.1331,-0.1164,-0.1168,-0.1171,-0.1172,0,-0.0588,-0.0605,-0.0687,-0.0736,-0.0749,-0.0731,-0.0822,-0.0787,-0.0847,-0.0924,-0.0777,-0.078,-0.0798,-0.0777,-0.0699,-0.0701,-0.0771,-0.086,-0.0897,-0.0928,-0.0875,-0.0811,-0.0457,0,0,0,0,0,-0.0494,-0.0503,-0.0541,-0.0598,-0.0605,-0.0632,-0.0639,-0.0713,-0.0761,-0.0581,-0.0742,-0.0562,-0.0534,-0.0552,-0.0505,-0.06,-0.0796,-0.0548,-0.0924,-0.1015,-0.1046,-0.1017,0,0,0,0,0,0,-0.0439,-0.045,-0.0502,-0.0466,-0.0471,-0.0459,-0.0478,-0.0506,-0.0468,-0.0513,-0.0488,-0.0519,-0.0495,-0.0524,-0.0482,-0.049,-0.0719,-0.0558,-0.0556,-0.0998,-0.1026,-0.1051,-0.1032,0,0,0,0,0]},{"header":{"parameterUnit":"m.s-1","parameterCategory":2,"la1":30.2991,"la2":30.254,"lo1":-89.0895,"lo2":-89.0444,"dy":0.0017,"dx":0.0017,"nx":28,"ny":28,"refTime":"2023-04-17T15:00:00:Z","depth":"4","parameterNumber":3,"parameterNumberName":"V-component_of_CURRENTS"},"data":[0,0,0,0,0,0,0,0,0,0,0,0,0,0,0,0,0,0,0,0,0,0,0,0,0,0,0,0,0,0,0,0,0,0,0,0,0,0,0,0,0,0,0,0,0,0,0,0,0,0,0,0,0,0,0,0,0,0,0.0137,0.0136,0,0.0102,0.0102,0.0101,0.0148,0.0149,0.0151,0.0153,0.0221,0.0222,0.0222,0,0,0,0,0,0,0,0,0,0,0,0,0,0.0188,0.0187,0.0137,0.0136,0.0136,0.0102,0.0102,0.0101,0.0147,0.0149,0.0151,0.0153,0.0221,0.0222,0.0222,0,0,0,0,0,0,0,0,0,0,0,0,0,0.016,0.0187,0.0137,0.0155,0.0157,0.0102,0.0102,0.0101,0.0147,0.0149,0.0152,0.0154,0.0221,0.0222,0.0222,0.0173,0,0,0.0223,0.0223,0,0,0,0,0,0,0,0,0.0162,0.0158,0.0153,0.0154,0.0155,0.0132,0.0145,0.013,0.0146,0.015,0.0153,0.0156,0.0199,0.0202,0.0188,0.0176,0.0179,0.0223,0.0223,0.0223,0.0224,0,0,0,0,0,0,0,0.0164,0.016,0.0123,0.0152,0.0154,0.0146,0.0146,0.0142,0.0163,0.015,0.0153,0.0149,0.0201,0.0187,0.019,0.018,0.0223,0.0223,0.0224,0.0224,0.0212,0.0211,0,0,0,0,0,0,0.0168,0.0161,0.0124,0.0122,0.0165,0.0144,0.0143,0.0137,0.016,0.0166,0.0147,0.0152,0.0185,0.0189,0.0193,0.02,0.0223,0.0224,0.0224,0.0212,0.0212,0.0211,0,0,0,0,0,0,0.017,0.0165,0.0125,0.0142,0.0136,0.0141,0.0133,0.0135,0.0162,0.0157,0.0165,0.0177,0.0187,0.0192,0.0208,0.0201,0.0224,0.0224,0.0213,0.0212,0.0211,0.0175,0,0,0,0,0,0,0.0171,0.0166,0.0198,0.0142,0.0135,0.0107,0.013,0.0132,0.0153,0.0159,0.0185,0.0191,0.019,0.0208,0.0209,0.0202,0.0225,0.0214,0.0212,0.0211,0.0177,0.0173,0.0169,0,0,0,0,0,0.0173,0.0181,0.02,0.0197,0.0168,0.0106,0.0102,0.0114,0.0152,0.0151,0.0173,0.0193,0.0202,0.0207,0.0209,0.0202,0.0214,0.0213,0.0212,0.0178,0.0173,0.017,0,0,0,0,0,0,0.0209,0.0185,0.0205,0.0207,0.0173,0.0115,0.0132,0.0131,0.0144,0.0173,0.0182,0.0188,0.0197,0.0205,0.0211,0.0196,0.0212,0.0211,0.0186,0.0182,0.0179,0.0168,0.0225,0,0,0,0,0,0.0235,0.0258,0.0202,0.0217,0.0202,0.0178,0.0173,0.0163,0.015,0.0161,0.0166,0.0181,0.0181,0.0192,0.0188,0.0181,0.0223,0.0179,0.0175,0.0172,0.0164,0.0239,0.0242,0.0207,0.0207,0.0207,0,0,0.0249,0.0251,0.026,0.0232,0.022,0.0156,0.0183,0.0165,0.0126,0.0165,0.0148,0.017,0.0178,0.0163,0.0169,0.0178,0.0203,0.0171,0.0168,0.0161,0.0238,0.0242,0.0245,0.0206,0.0206,0.0206,0,0,0.0253,0.0292,0.0291,0.0249,0.0227,0.019,0.019,0.0135,0.0142,0.011,0.0136,0.0163,0.0144,0.015,0.0151,0.013,0.0181,0.013,0.0103,0.0176,0.018,0.0184,0.0239,0.0249,0.0129,0.0129,0.0129,0,0.0276,0.0258,0.0277,0.0232,0.0194,0.02,0.0132,0.0117,0.0076,0.0072,0.0106,0.0104,0.0133,0.0119,0.0114,0.0123,0.0168,0.0119,0.0173,0.0178,0.0183,0.0239,0.025,0.0127,0.0127,0.0127,0.0127,0,0.0216,0.0221,0.0211,0.0162,0.0122,0.0074,0.0022,0.0009,0.0026,0.0003,0.0013,0.0051,0.0059,0.0069,0.0086,0.0117,0.0138,0.0163,0.0187,0.0185,0.0243,0.0255,0.0124,0.0125,0.0125,0.0126,0,0,0.0227,0.0176,0.0186,0.0145,0.0077,0.002,-0.0026,-0.0087,-0.0106,-0.0097,-0.0115,-0.0081,-0.0024,-0.0016,0.0028,0.0086,0.0173,0.0137,0.0142,0.0196,0.0328,0.0182,0.0181,0.0215,0.0217,0.0218,0.0354,0,0.0183,0.0098,0.008,-0.0013,-0.008,-0.0106,-0.0159,-0.0201,-0.02,-0.0214,-0.0143,-0.012,-0.0066,-0.0023,0.0034,0.0138,0.0203,0.0133,0.0318,0.0322,0.0197,0.0189,0.0224,0.0364,0.0366,0.0369,0.037,0,0.0141,0.0082,-0.0007,-0.0105,-0.0136,-0.0174,-0.0247,-0.0298,-0.0305,-0.0294,-0.0253,-0.0201,-0.0111,-0.0046,0.013,0.0086,0.0205,0.0286,0.0294,0.0175,0.0197,0.0368,0.0392,0.0391,0.0389,0.0387,0.0386,0,0.0147,0.0036,-0.0023,-0.0071,-0.0193,-0.02,-0.0239,-0.0282,-0.0323,-0.0288,-0.0292,-0.0208,-0.0121,0.0019,0.0142,0.0183,0.0303,0.0396,0.0369,0.0361,0.0473,0.0468,0.053,0.053,0.053,0.0529,0.0529,0,0.0107,0.0064,-0.0002,-0.0045,-0.0124,-0.0187,-0.0237,-0.0263,-0.0296,-0.0342,-0.0279,-0.0285,-0.0091,-0.0032,0.0112,0.0219,0.0295,0.0351,0.0379,0.0453,0.0443,0.0482,0.0475,0.0534,0.0533,0.0532,0.0531,0,0.0141,0.0096,0.0028,-0.0069,-0.0101,-0.0125,-0.0222,-0.0279,-0.0281,-0.0327,-0.03,-0.0288,-0.0189,-0.0096,0.0112,0.0182,0.0303,0.032,0.0328,0.0357,0.0348,0.0337,0.0397,0.0393,0.0389,0.0387,0.0384,0,0.0146,0.0122,0.0047,0.0019,0.0004,-0.0064,-0.0133,-0.0222,-0.0277,-0.0348,-0.0364,-0.0318,-0.0297,-0.0125,-0.0031,0.0163,0.0192,0.0265,0.0374,0.0309,0.0332,0.0327,0.0321,0.0378,0.0377,0.0377,0.0376,0,0.0147,0.0178,0.0115,0.0095,0.0052,-0.0075,-0.0141,-0.0191,-0.03,-0.0363,-0.0361,-0.0311,-0.0266,-0.0135,-0.0067,0.0082,0.0227,0.0231,0.0245,0.0349,0.0288,0.0313,0.0311,0.0363,0.0365,0.0366,0.0367,0,0.0194,0.0196,0.0197,0.0167,0.012,0.0052,-0.0072,-0.0146,-0.0223,-0.0306,-0.0328,-0.0291,-0.0288,-0.0186,-0.0126,-0.0031,0.0089,0.0207,0.0224,0.0239,0.0112,0.0006,0.0011,0,0,0,0,0,0.0231,0.0276,0.0254,0.025,0.0213,0.0191,-0.0011,-0.015,-0.0291,-0.0272,-0.0282,-0.0248,-0.0163,-0.0164,-0.0065,-0.0149,0.0097,-0.0035,0.0243,0.0295,0.0309,0.0168,0,0,0,0,0,0,0.0281,0.0299,0.0298,0.0372,0.0398,0.0324,0.0212,0.004,0.0033,-0.0093,-0.005,-0.0136,-0.0061,-0.0126,0.0002,0.0001,0.0199,-0.0037,-0.0035,0.0287,0.03,0.0311,0.0171,0,0,0,0,0]}]]